Regional Weather Roundup
Issued by NWS

Home | Current Version | Previous Version | Text Only | Print | Product List | Glossary On
Versions: 1 2 3 4 5 6 7 8 9 10 11 12 13 14 15 16 17 18 19 20 21 22 23 24 25 26 27 28 29 30 31 32 33 34 35 36 37 38 39 40 41 42 43 44 45 46 47 48 49 50
000
ASUS43 KLSX 240859
RWRMO

WEATHER SUMMARY FOR MISSOURI
NATIONAL WEATHER SERVICE SPRINGFIELD MO
400 AM CDT FRI OCT 24 2014

NOTE: "FAIR" INDICATES FEW OR NO CLOUDS BELOW 12,000 FEET WITH NO
       SIGNIFICANT WEATHER AND/OR OBSTRUCTIONS TO VISIBILITY.
       CURRENT SKY AND/OR WEATHER CONDITIONS ARE NOT AVAILABLE FOR
       CHILLICOTHE AND FARMINGTON.

MOZ001>031-035>038-043-044-053-054-241000-
...NORTHERN AND WESTERN MISSOURI...

CITY           SKY/WX    TMP DP  RH WIND       PRES   REMARKS
KANSAS CTY INT MOCLDY    55  55 100 S10       30.05F FOG
KANSAS C DTWN  PTCLDY    57  55  93 S8        30.06F FOG
LEE`S SUMMIT   FOG       56  56 100 SW10      30.08F VSB 1/2
ST JOSEPH      FOG       53  53 100 S5        30.04F VSB 1/4
KIRKSVILLE     FOG       56  56 100 W6        30.07S VSB 1/4

$$
MOZ066>068-077>081-088>096-101>105-241000-
...SOUTHWEST MISSOURI...

CITY           SKY/WX    TMP DP  RH WIND       PRES   REMARKS
SPRINGFIELD    CLEAR     51  50  96 S7        30.10F
JOPLIN         CLEAR     51  50  96 S7        30.12F

$$
MOZ032>034-039>042-045>050-055>058-069>072-241000-
...CENTRAL MISSOURI...

CITY           SKY/WX    TMP DP  RH WIND       PRES   REMARKS
COLUMBIA       FOG       52  52 100 W5        30.09R VSB 1/4
JEFFERSON CITY FOG       47  46  97 CALM      30.09S VSB 1/4
ROLLA          MOCLDY    49  47  93 SW7       30.08F
SEDALIA        CLOUDY    61  57  87 SW7       30.10S
OSAGE BEACH    CLOUDY    59  55  88 W3        30.10S

$$
MOZ051-052-059>065-241000-
...EAST CENTRAL MISSOURI...

CITY           SKY/WX    TMP DP  RH WIND       PRES   REMARKS
ST LOUIS INTL  PTCLDY    53  47  79 CALM      30.08F
SPIRIT OF STL  MOCLDY    50  47  89 CALM      30.08S
ST CHARLES     CLOUDY    52  49  89 W3        30.08S

$$
MOZ072>076-082>087-097>100-106>115-241000-
...SOUTH CENTRAL AND SOUTHEAST MISSOURI...

CITY           SKY/WX    TMP DP  RH WIND       PRES   REMARKS
CAPE GIRARDEAU CLOUDY    48  46  93 CALM      30.12F
FARMINGTON     PTCLDY    48  46  93 SE3       30.11F
POPLAR BLUFF   MOCLDY    47  44  90 CALM      30.12F
WEST PLAINS    CLEAR     48  45  89 SW5       30.12F

$$



USA.gov is the U.S. government's official web portal to all federal, state and local government web resources and services.